Terminal Aerodrome Forecast
Issued by NWS

Home | Current Version | Previous Version | Text Only | Print | Product List | Glossary On
Versions: 1 2 3 4 5 6 7 8 9 10 11 12 13 14 15 16 17 18 19 20 21
000
FTUS43 KLSX 200536
TAFCPS
TAF
KCPS 200536Z 2006/2106 VRB04KT 3SM -DZ BR VCSH OVC004
     FM200800 VRB04KT 1/4SM -DZ FG OVC002
     FM201600 16005KT 1SM BR OVC003
     FM201800 16008KT 5SM BR OVC008
     FM202000 16009KT P6SM OVC015=

USA.gov is the U.S. government's official web portal to all federal, state and local government web resources and services.